GW5801 Weather Reports


time (UTC)temp
F
wind
direction
speed
knots
gust
knots
rain 1hr
in
rain 24hr
in
rain mn
in
humidity
%
barometer
mb
20260506070627 77 228 0.9 1.7 0.00 0.00 0.00 91 1010.2
20260506070125 77 191 0.9 1.7 0.00 0.00 0.00 90 1010.1
20260506062102 77 251 0.0 2.6 0.00 0.00 0.00 90 1010.0
20260506061557 77 224 0.9 2.6 0.00 0.00 0.00 90 1010.0
20260506061055 77 272 0.0 1.7 0.00 0.00 0.00 90 1009.8
20260506060554 77 124 0.0 0.9 0.00 0.00 0.00 90 1009.9
20260506051022 77 214 0.0 1.7 0.00 0.00 0.00 89 1010.2
20260506050520 77 185 0.9 1.7 0.00 0.00 0.00 89 1010.0
20260506045011 77 230 0.0 2.6 0.00 0.00 0.00 89 1010.1
20260506044509 77 219 0.0 1.7 0.00 0.00 0.00 89 1010.1
20260506044005 77 143 0.9 1.7 0.00 0.00 0.00 89 1010.0
20260506043502 77 195 0.9 2.6 0.00 0.00 0.00 89 1009.9
20260506043000 77 203 1.7 3.5 0.00 0.00 0.00 89 1010.0
20260506042455 77 332 0.0 2.6 0.00 0.00 0.00 89 1009.9
20260506041952 77 109 0.9 1.7 0.00 0.00 0.00 89 1010.0
20260506041450 77 258 0.9 5.2 0.00 0.00 0.00 89 1010.0
20260506040947 77 135 0.0 1.7 0.00 0.00 0.00 89 1010.0
20260506040445 77 261 0.9 2.6 0.00 0.00 0.00 89 1009.8
20260506035940 77 178 1.7 3.5 0.00 0.00 0.00 89 1009.8
20260506035438 77 140 0.9 2.6 0.00 0.00 0.00 89 1010.0
20260506034934 78 226 1.7 3.5 0.00 0.00 0.00 89 1009.8
20260506034431 78 129 1.7 2.6 0.00 0.00 0.00 88 1009.8
20260506033929 78 229 0.9 2.6 0.00 0.00 0.00 88 1009.8
20260506033426 78 152 1.7 2.6 0.00 0.00 0.00 88 1009.7
20260506032922 78 204 0.9 2.6 0.00 0.00 0.00 88 1009.6
20260506032420 78 116 0.0 3.5 0.00 0.00 0.00 88 1009.8
20260506031916 78 125 3.5 5.2 0.00 0.00 0.00 89 1009.5
20260506031414 78 196 0.0 5.2 0.00 0.00 0.00 89 1009.5
20260506030911 77 236 0.9 1.7 0.00 0.00 0.00 89 1009.6
20260506030409 77 85 0.9 2.6 0.00 0.00 0.00 89 1009.6
20260506025905 77 180 2.6 3.5 0.00 0.00 0.00 89 1009.7
20260506025403 77 218 0.9 1.7 0.00 0.00 0.00 89 1009.5
20260506024859 77 173 0.9 2.6 0.00 0.00 0.00 89 1009.3
20260506024356 77 240 0.0 5.2 0.00 0.00 0.00 89 1009.4
20260506023852 77 206 0.9 1.7 0.00 0.00 0.00 89 1009.2
20260506023349 77 182 0.9 3.5 0.00 0.00 0.00 89 1009.2
20260506022846 77 163 0.9 1.7 0.00 0.00 0.00 89 1009.1
20260506022344 77 193 1.7 6.1 0.00 0.00 0.00 89 1009.1
20260506021841 77 182 0.9 1.7 0.00 0.00 0.00 89 1009.0
20260506021338 77 192 0.9 2.6 0.00 0.00 0.00 89 1008.9
20260506020835 77 184 0.0 3.5 0.00 0.00 0.00 88 1008.8
20260506020333 77 226 0.9 1.7 0.00 0.00 0.00 88 1008.9
20260506015830 78 113 0.9 0.9 0.00 0.00 0.00 88 1008.7
20260506015327 78 201 0.9 1.7 0.00 0.00 0.00 87 1008.7
20260506014824 78 160 0.9 1.7 0.00 0.00 0.00 87 1008.6
20260506014321 78 179 0.0 2.6 0.00 0.00 0.00 87 1008.5
20260506013818 78 219 0.9 2.6 0.00 0.00 0.00 87 1008.5
20260506013315 78 195 2.6 2.6 0.00 0.00 0.00 87 1008.5
20260506012811 78 244 0.9 3.5 0.00 0.00 0.00 86 1008.5
20260506012309 78 238 0.9 2.6 0.00 0.00 0.00 86 1008.4
20260506011806 78 356 0.9 1.7 0.00 0.00 0.00 86 1008.3
20260506011302 78 182 0.9 1.7 0.00 0.00 0.00 86 1008.2
20260506010800 78 233 2.6 3.5 0.00 0.00 0.00 86 1008.1
20260506010257 78 143 2.6 7.8 0.00 0.00 0.00 86 1008.0
20260506005754 78 233 0.9 1.7 0.00 0.00 0.00 86 1008.0
20260506005251 78 101 1.7 3.5 0.00 0.00 0.00 86 1007.9
20260506004747 79 122 0.9 6.1 0.00 0.00 0.00 85 1008.0
20260506004245 79 237 0.9 1.7 0.00 0.00 0.00 85 1007.7
20260506003740 79 235 0.0 2.6 0.00 0.00 0.00 85 1007.8
20260506003237 79 199 0.0 2.6 0.00 0.00 0.00 85 1007.7
20260506002734 79 238 0.9 1.7 0.00 0.00 0.00 85 1007.8
20260506002229 79 130 0.9 2.6 0.00 0.00 0.00 84 1007.9
20260506001725 79 193 2.6 7.8 0.00 0.00 0.00 84 1007.7
20260506001223 79 186 1.7 3.5 0.00 0.00 0.00 84 1007.7
20260506000720 79 340 1.7 3.5 0.00 0.00 0.00 84 1007.8
20260506000219 79 207 0.9 3.5 0.00 0.00 0.00 84 1007.9
20260505235715 79 133 0.9 3.5 0.00 0.00 0.00 84 1008.0
20260505235213 79 216 0.9 5.2 0.00 0.00 0.00 83 1007.8
20260505234709 79 200 0.9 1.7 0.00 0.00 0.00 83 1007.8
20260505234206 80 157 1.7 2.6 0.00 0.00 0.00 83 1007.8
20260505233702 80 169 2.6 6.1 0.00 0.00 0.00 83 1007.9
20260505233201 80 164 1.7 7.8 0.00 0.00 0.00 82 1008.0
20260505232658 80 245 1.7 5.2 0.00 0.00 0.00 82 1008.0
20260505232155 80 224 0.9 6.1 0.00 0.00 0.00 81 1007.9
20260505231652 80 266 1.7 3.5 0.00 0.00 0.00 82 1007.9
20260505231151 80 119 1.7 6.1 0.00 0.00 0.00 81 1007.7
20260505230649 80 235 0.9 7.0 0.00 0.00 0.00 81 1007.9
20260505230145 80 225 0.9 2.6 0.00 0.00 0.00 81 1007.9
20260505225641 80 139 0.9 2.6 0.00 0.00 0.00 81 1007.8
20260505225137 80 145 1.7 7.8 0.00 0.00 0.00 81 1008.0
20260505224633 80 74 3.5 6.1 0.00 0.00 0.00 81 1007.8
20260505224132 80 250 3.5 5.2 0.00 0.00 0.00 81 1007.8
20260505223629 80 232 0.9 1.7 0.00 0.00 0.00 82 1007.9
20260505223125 80 121 0.0 0.9 0.00 0.00 0.00 83 1007.8
20260505222621 80 269 1.7 3.5 0.00 0.00 0.00 82 1008.0
20260505222117 80 109 0.9 2.6 0.00 0.00 0.00 82 1008.1
20260505221614 80 251 0.9 2.6 0.00 0.00 0.00 83 1008.0
20260505221111 81 238 1.7 3.5 0.00 0.00 0.00 82 1008.0
20260505220609 80 206 0.0 2.6 0.00 0.00 0.00 83 1008.0
20260505220106 80 238 3.5 6.1 0.00 0.00 0.00 83 1008.1
20260505215604 80 190 1.7 7.0 0.00 0.00 0.00 82 1008.1
20260505215101 81 172 0.9 3.5 0.00 0.00 0.00 82 1008.3
20260505214554 81 190 3.5 6.1 0.00 0.00 0.00 81 1008.2
20260505214050 81 185 1.7 3.5 0.00 0.00 0.00 80 1008.4
20260505213548 81 111 2.6 5.2 0.00 0.00 0.00 79 1008.4
20260505213044 81 184 1.7 6.1 0.00 0.00 0.00 80 1008.2
20260505212541 81 221 1.7 6.1 0.00 0.00 0.00 82 1008.4
20260505212038 80 127 3.5 5.2 0.00 0.00 0.00 82 1008.3
20260505211535 80 134 0.9 6.1 0.00 0.00 0.00 83 1008.5
20260505211031 81 168 3.5 7.0 0.00 0.00 0.00 82 1008.6
20260505210528 81 53 1.7 2.6 0.00 0.00 0.00 82 1008.8
20260505210025 81 228 1.7 1.7 0.00 0.00 0.00 81 1008.5
20260505205523 81 142 2.6 3.5 0.00 0.00 0.00 81 1008.6
20260505205020 82 169 2.6 5.2 0.00 0.00 0.00 81 1008.9
20260505204518 81 207 0.0 2.6 0.00 0.00 0.00 82 1008.9
20260505204014 81 258 0.9 2.6 0.00 0.00 0.00 82 1009.0
20260505203511 81 207 1.7 5.2 0.00 0.00 0.00 82 1009.0
20260505203008 81 240 0.9 1.7 0.00 0.00 0.00 83 1009.2
20260505202504 81 155 1.7 1.7 0.00 0.00 0.00 83 1009.2
20260505202000 81 218 0.9 5.2 0.00 0.00 0.00 82 1009.4
20260505201457 82 263 2.6 3.5 0.00 0.00 0.00 81 1009.2
20260505200955 81 100 0.9 1.7 0.00 0.00 0.00 82 1009.2
20260505200452 81 255 1.7 6.1 0.00 0.00 0.00 83 1009.3
20260505195948 81 151 1.7 2.6 0.00 0.00 0.00 82 1009.4
20260505195445 81 219 0.9 5.2 0.00 0.00 0.00 82 1009.4
20260505194942 81 235 1.7 6.1 0.00 0.00 0.00 82 1009.4
20260505194440 81 172 0.9 2.6 0.00 0.00 0.00 82 1009.3
20260505193939 81 217 0.9 3.5 0.00 0.00 0.00 82 1009.5
20260505193437 81 115 1.7 2.6 0.00 0.00 0.00 81 1009.7
20260505192935 81 237 0.0 2.6 0.00 0.00 0.00 83 1009.4
20260505192433 80 186 1.7 2.6 0.00 0.00 0.00 85 1009.5
20260505191930 80 207 1.7 1.7 0.00 0.00 0.00 86 1009.8
20260505191429 80 187 0.9 2.6 0.00 0.00 0.00 85 1009.9
20260505190925 80 194 0.9 2.6 0.00 0.00 0.00 84 1009.7
20260505190421 80 206 1.7 1.7 0.00 0.00 0.00 84 1009.7
20260505185916 80 189 0.9 1.7 0.00 0.00 0.00 85 1009.7
20260505185414 79 214 0.0 3.5 0.00 0.00 0.00 85 1010.0
20260505184910 79 242 1.7 3.5 0.00 0.00 0.00 85 1009.7
20260505184407 79 260 0.9 2.6 0.00 0.00 0.00 85 1009.9
20260505183904 79 101 1.7 3.5 0.00 0.00 0.00 86 1010.1
20260505183400 79 248 1.7 1.7 0.00 0.00 0.00 86 1010.1
20260505182857 79 224 0.0 3.5 0.00 0.00 0.00 87 1010.0
20260505182354 78 250 0.9 6.1 0.00 0.00 0.00 87 1010.1
20260505181851 79 184 0.9 5.2 0.00 0.00 0.00 86 1010.1
20260505181348 79 253 0.9 3.5 0.00 0.00 0.00 85 1010.0
20260505180845 79 207 0.9 2.6 0.00 0.00 0.00 85 1010.1
20260505180341 79 190 1.7 2.6 0.00 0.00 0.00 85 1010.1
20260505175838 79 209 0.0 1.7 0.00 0.00 0.00 87 1010.1
20260505175334 78 277 0.0 1.7 0.00 0.00 0.00 87 1010.0
20260505174831 78 168 1.7 5.2 0.00 0.00 0.00 87 1010.4
20260505174328 78 118 2.6 3.5 0.00 0.00 0.00 87 1010.2
20260505173824 79 248 0.9 6.1 0.00 0.00 0.00 86 1010.5
20260505173320 79 104 1.7 1.7 0.00 0.00 0.00 85 1010.3
20260505172818 79 121 1.7 3.5 0.00 0.00 0.00 84 1010.3
20260505172316 79 203 0.9 2.6 0.00 0.00 0.00 84 1010.4
20260505171815 79 221 1.7 3.5 0.00 0.00 0.00 84 1010.4
20260505171312 79 132 1.7 2.6 0.00 0.00 0.00 86 1010.5
20260505170808 78 196 0.9 2.6 0.00 0.00 0.00 85 1010.5
20260505170306 78 127 0.9 2.6 0.00 0.00 0.00 86 1010.6
20260505165801 78 213 0.0 0.9 0.00 0.00 0.00 86 1010.4
20260505165257 79 195 0.9 2.6 0.00 0.00 0.00 85 1010.4
20260505164753 79 107 2.6 2.6 0.00 0.00 0.00 84 1010.4
20260505164250 79 236 0.9 1.7 0.00 0.00 0.00 83 1010.2
20260505163748 79 264 0.0 3.5 0.00 0.00 0.00 83 1010.4
20260505163247 79 162 1.7 1.7 0.00 0.00 0.00 83 1010.2
20260505162743 79 268 0.9 2.6 0.00 0.00 0.00 83 1010.3
20260505162240 79 229 0.0 2.6 0.00 0.00 0.00 83 1010.4
20260505161737 79 197 0.9 0.9 0.00 0.00 0.00 83 1010.6
20260505161235 79 205 0.0 1.7 0.00 0.00 0.00 83 1010.1
20260505160732 79 164 2.6 3.5 0.00 0.00 0.00 82 1010.2
20260505160230 79 244 0.9 2.6 0.00 0.00 0.00 82 1010.3
20260505153209 79 98 0.9 2.6 0.00 0.00 0.00 81 1010.2
20260505152706 79 201 0.0 0.9 0.00 0.00 0.00 82 1010.1
20260505152202 78 229 0.0 2.6 0.00 0.00 0.00 83 1010.2
20260505151657 78 182 0.9 3.5 0.00 0.00 0.00 83 1010.1
20260505151155 79 240 1.7 2.6 0.00 0.00 0.00 83 1009.9
20260505150651 78 107 3.5 6.1 0.00 0.00 0.00 85 1009.9
20260505150148 77 91 0.9 1.7 0.00 0.00 0.00 89 1010.1
20260505140616 77 159 0.0 1.7 0.00 0.00 0.00 86 1010.2
20260505140113 77 248 3.5 3.5 0.00 0.00 0.00 86 1010.1
20260505125030 75 118 0.0 3.5 0.00 0.00 0.00 89 1009.9
20260505124526 74 257 0.0 0.0 0.00 0.00 0.00 89 1009.8
20260505124022 74 194 0.9 1.7 0.00 0.00 0.00 89 1009.6
20260505123519 74 295 0.9 3.5 0.00 0.00 0.00 88 1009.6
20260505123015 74 141 0.0 1.7 0.00 0.00 0.00 88 1009.4
20260505122513 74 160 0.9 3.5 0.00 0.00 0.00 88 1009.4
20260505122009 74 185 0.0 2.6 0.00 0.00 0.00 88 1009.2
20260505121506 74 232 1.7 3.5 0.00 0.00 0.00 88 1009.3
20260505121002 74 233 0.0 0.9 0.00 0.00 0.00 89 1009.6
20260505120459 74 211 0.9 1.7 0.00 0.00 0.00 89 1009.6
20260505115958 74 237 0.0 0.0 0.00 0.00 0.00 89 1009.8
20260505115454 74 236 0.9 2.6 0.00 0.00 0.00 89 1009.6
20260505114952 74 212 0.9 1.7 0.00 0.00 0.00 89 1009.5
20260505114448 74 165 0.9 3.5 0.00 0.00 0.00 89 1009.3
20260505113945 74 115 0.0 1.7 0.00 0.00 0.00 89 1009.4
20260505113441 73 201 0.9 2.6 0.00 0.00 0.00 89 1009.5
20260505112937 73 181 0.9 1.7 0.00 0.00 0.00 89 1009.3
20260505112435 73 223 0.9 2.6 0.00 0.00 0.00 89 1009.3
20260505111931 73 201 0.0 1.7 0.00 0.00 0.00 89 1009.5
20260505111426 74 246 0.9 1.7 0.00 0.00 0.00 88 1009.5
20260505110923 74 238 0.9 1.7 0.00 0.00 0.00 88 1009.6
20260505110419 74 179 0.0 0.9 0.00 0.00 0.00 88 1009.7
20260505101850 73 198 0.0 1.7 0.00 0.00 0.00 88 1009.5
20260505101345 73 216 0.0 2.6 0.00 0.00 0.00 88 1009.4
20260505100841 73 196 0.0 1.7 0.00 0.00 0.00 87 1009.3
20260505100338 73 182 0.0 0.9 0.00 0.00 0.00 87 1009.2
20260505095833 73 218 0.0 1.7 0.00 0.00 0.00 87 1009.2
20260505095331 73 202 0.9 1.7 0.00 0.00 0.00 87 1009.5
20260505094827 73 176 0.9 2.6 0.00 0.00 0.00 87 1009.3
20260505094324 73 228 0.9 2.6 0.00 0.00 0.00 88 1009.5
20260505093820 73 226 1.7 2.6 0.00 0.00 0.00 88 1009.7
20260505093318 73 208 0.0 0.9 0.00 0.00 0.00 88 1009.9
20260505092814 73 205 0.9 0.9 0.00 0.00 0.00 88 1009.8
20260505092313 73 206 0.0 1.7 0.00 0.00 0.00 87 1009.7
20260505091810 73 229 0.0 0.9 0.00 0.00 0.00 87 1009.6
20260505091308 73 223 0.9 1.7 0.00 0.00 0.00 87 1009.6
20260505090805 73 207 0.9 1.7 0.00 0.00 0.00 87 1009.7
20260505090303 73 207 0.0 0.9 0.00 0.00 0.00 86 1009.9
20260505085800 73 186 0.0 1.7 0.00 0.00 0.00 86 1009.8
20260505085258 74 232 0.0 2.6 0.00 0.00 0.00 86 1009.6
20260505084756 74 215 0.0 0.9 0.00 0.00 0.00 86 1009.8
20260505084255 74 164 0.9 1.7 0.00 0.00 0.00 85 1009.7
20260505083751 74 166 1.7 1.7 0.00 0.00 0.00 85 1009.7
20260505083248 74 192 1.7 2.6 0.00 0.00 0.00 85 1009.7
20260505082744 74 213 0.0 0.9 0.00 0.00 0.00 85 1009.8
20260505082241 74 209 0.9 1.7 0.00 0.00 0.00 85 1009.8
20260505081737 74 136 1.7 2.6 0.00 0.00 0.00 85 1009.8
20260505081235 73 237 3.5 6.1 0.00 0.00 0.00 85 1009.9
20260505080731 73 224 0.9 2.6 0.00 0.00 0.00 85 1009.7
20260505080227 73 283 1.7 2.6 0.00 0.00 0.00 85 1010.1
20260505075723 73 230 0.0 0.9 0.00 0.00 0.00 85 1009.9
20260505075220 73 255 0.9 1.7 0.00 0.00 0.00 85 1009.9
20260505074717 73 292 0.0 0.9 0.00 0.00 0.00 85 1010.1
20260505074214 73 192 1.7 1.7 0.00 0.00 0.00 85 1010.0
20260505073712 73 227 0.0 3.5 0.00 0.00 0.00 85 1009.9
20260505073210 73 205 0.9 1.7 0.00 0.00 0.00 85 1010.0
20260505072705 73 178 0.9 0.9 0.00 0.00 0.00 85 1010.2
20260505072202 73 198 0.0 1.7 0.00 0.00 0.00 84 1010.2
20260505071657 73 192 0.9 0.9 0.00 0.00 0.00 84 1010.2
20260505071155 73 225 0.9 1.7 0.00 0.00 0.00 84 1010.3